Wind_Speed
9 9 9 9 9 8 8 7 7 7 7 6 7 7 8 8 7 7 6 7 7 7 7 7 7 7 7 7 8 8 8 8 7 7 7 7 7 7 7 7 7 8 8 8
10 10 10 9 9 10 9 9 8 8 8 8 8 8 8 8 8 7 7 7 7 7 7 7 7 8 8 8 8 8 9 8 8 8 8 8 8 8 8 7 8 8 9 9
11 11 11 10 10 11 11 10 10 10 9 9 10 9 9 9 9 8 7 7 7 8 8 7 8 8 8 8 9 9 9 9 9 9 10 9 8 8 8 8 9 9 9 10
11 11 11 11 11 11 11 10 10 10 10 10 10 10 9 9 9 9 9 8 8 8 8 8 9 9 9 9 9 9 9 10 10 10 10 10 9 9 9 9 10 10 10 10
10 11 12 11 11 11 11 11 11 11 11 11 11 11 10 10 10 10 10 9 9 9 9 9 10 10 10 10 10 10 10 11 11 11 11 10 10 10 10 10 11 11 11 11
11 11 12 12 12 12 12 11 11 11 11 11 10 11 10 11 11 11 11 11 10 11 10 10 11 11 11 11 11 11 11 11 11 11 11 11 11 11 11 11 11 11 11 11
12 12 13 12 12 11 12 12 12 11 11 12 12 12 12 11 12 12 12 12 11 11 11 11 11 11 11 12 12 12 12 12 12 12 12 12 12 12 12 12 12 12 12 12
13 13 13 13 12 12 12 12 13 13 13 13 13 13 13 12 13 13 13 12 12 11 12 12 12 12 12 13 13 13 13 13 13 13 13 13 13 13 13 13 13 13 13 13
15 15 14 14 13 13 13 13 14 14 14 15 14 13 13 13 13 13 13 13 13 12 13 13 13 13 13 14 14 14 14 14 14 14 14 14 14 14 14 13 14 14 14 13
16 15 15 15 15 15 15 15 15 15 16 16 15 14 15 15 14 14 14 15 15 14 13 14 14 14 14 15 15 14 14 14 14 14 14 15 15 15 15 15 15 15 14 14
17 17 16 17 17 17 17 17 17 17 17 17 17 16 15 16 16 16 16 16 16 15 15 15 15 15 16 16 16 16 16 16 16 16 16 16 16 16 16 16 16 16 15 15
19 19 18 18 18 18 19 19 19 19 19 19 19 19 17 17 17 17 17 17 17 16 16 17 17 17 17 17 17 18 18 18 17 17 18 18 18 18 18 18 18 17 17 16
20 20 19 19 20 20 20 20 20 20 21 21 21 20 19 19 18 19 19 18 18 18 18 18 18 18 19 19 19 19 19 20 20 20 20 20 19 19 20 20 20 19 18 18
21 22 21 21 21 22 21 21 21 21 21 21 21 21 20 20 20 20 20 20 20 20 19 20 20 20 21 21 21 21 21 21 21 21 21 21 20 20 20 20 20 19 19 18
23 24 24 24 23 23 23 22 22 22 22 21 21 21 21 21 21 21 22 22 22 21 21 21 22 22 22 22 22 22 22 22 22 22 22 22 21 21 20 20 20 20 19 19
25 25 25 25 24 24 24 23 23 23 23 22 22 22 22 22 22 21 22 23 23 22 23 23 23 23 23 23 23 23 23 23 23 23 22 22 22 21 21 21 21 21 20 19
24 25 26 26 25 25 24 23 23 24 23 23 23 23 23 23 23 23 23 23 23 23 24 24 24 24 24 24 24 24 24 25 24 24 23 23 22 22 22 22 22 21 20 20
24 25 26 27 26 26 25 24 24 25 24 24 24 24 24 24 24 23 24 24 24 24 24 25 25 25 25 25 25 25 25 25 25 24 24 24 23 23 22 22 22 22 22 21
25 25 26 27 27 27 26 25 25 25 25 25 26 25 25 24 24 25 25 25 25 25 25 25 25 26 26 26 26 25 25 25 25 25 25 24 24 24 23 23 23 23 23 23
26 26 27 27 28 27 27 26 26 26 26 26 26 26 26 25 25 25 26 26 26 27 26 26 26 26 26 26 26 26 26 26 25 25 25 25 24 24 23 23 24 24 24 23
27 27 27 28 28 29 29 27 26 27 27 26 26 26 26 26 26 25 26 26 26 27 27 27 27 27 27 27 27 27 27 26 26 25 25 24 24 24 24 24 24 25 24 23
27 28 28 28 29 30 29 29 29 28 28 27 27 27 26 26 26 26 25 26 27 27 27 27 27 27 27 28 28 28 27 27 26 25 25 24 23 23 24 24 24 24 24 23
28 29 29 29 30 30 30 30 30 30 29 29 28 27 27 26 26 26 26 27 27 27 27 28 28 28 28 28 28 28 27 27 27 26 26 25 24 24 24 24 24 24 24 24
29 29 29 29 30 31 31 31 31 30 30 29 29 28 28 28 28 28 28 28 28 28 28 28 29 28 27 28 29 28 27 27 26 26 25 25 25 25 26 26 26 25 25 25
29 29 30 30 30 31 31 31 31 30 30 30 30 29 29 29 28 28 28 28 28 28 29 29 28 28 28 29 29 28 28 27 27 26 26 26 26 26 26 26 26 25 25 26
28 29 30 30 30 30 30 30 30 30 29 29 29 29 30 30 29 29 28 28 29 29 29 29 29 29 29 29 29 29 28 28 28 27 27 27 27 27 27 27 26 25 26 26
Wind_Direction
257 257 258 255 250 254 261 267 274 283 283 286 290 293 295 295 298 295 295 298 300 298 299 300 300 301 302 306 312 314 312 313 310 308 305 299 299 296 295 293 298 300 300 300
258 256 255 255 254 256 261 266 271 277 281 283 289 290 288 289 295 293 292 294 295 294 292 296 300 301 301 301 304 309 311 312 309 307 306 300 299 296 295 296 300 301 303 304
258 257 255 255 258 261 260 261 266 273 280 282 286 287 285 285 286 286 287 288 289 290 291 292 296 298 299 300 301 304 306 306 307 307 306 301 297 296 292 293 296 299 300 303
256 257 255 257 262 261 260 262 267 272 277 279 281 282 282 282 282 281 281 282 285 286 286 287 291 294 296 298 302 303 301 301 303 304 303 301 298 295 291 291 294 297 300 301
258 256 257 258 262 263 266 268 270 271 272 274 276 279 278 277 279 280 279 278 281 285 287 287 289 291 294 297 299 299 299 296 296 298 300 298 298 297 293 292 294 297 301 302
260 261 260 261 260 263 265 267 270 272 272 275 275 276 275 274 277 278 277 277 279 284 286 285 286 289 292 294 295 296 296 294 292 292 292 292 294 295 294 292 292 296 299 301
260 262 262 262 263 262 264 267 272 274 275 277 277 277 275 273 273 277 277 277 280 284 285 283 284 288 290 292 292 291 291 291 289 290 289 287 289 290 293 293 292 293 293 294
260 261 260 260 262 264 264 266 270 273 276 277 277 278 277 275 273 274 275 278 281 281 282 284 284 286 290 289 288 289 289 289 288 287 287 286 285 286 291 294 294 293 292 290
259 260 259 259 261 262 261 264 268 270 272 275 277 277 277 276 274 274 273 275 278 279 281 284 286 287 289 288 288 289 290 288 287 287 286 286 282 283 287 291 294 294 292 291
260 260 260 261 262 263 263 266 268 269 271 274 276 275 276 276 277 274 272 273 276 278 281 284 287 288 288 288 288 289 290 290 289 287 286 285 284 283 284 287 290 292 289 287
261 263 261 262 263 265 266 267 268 269 270 275 277 274 274 275 274 273 273 275 276 277 280 284 287 288 288 287 288 289 289 290 289 286 285 284 284 284 284 285 286 286 285 282
264 264 262 262 264 264 266 268 269 271 272 271 273 272 270 272 274 275 274 275 277 277 280 282 284 286 287 286 287 288 288 288 288 286 285 284 284 284 283 282 283 283 282 281
266 265 264 264 265 265 265 267 268 270 270 269 270 272 270 269 269 271 272 273 274 276 278 280 282 284 286 285 286 287 286 287 286 286 285 284 284 283 281 280 280 281 279 278
268 266 264 264 265 265 266 267 267 268 269 270 269 270 270 268 268 269 270 272 273 275 276 278 279 281 283 285 285 286 286 286 286 285 285 285 284 282 280 279 278 278 279 277
266 266 265 265 266 266 265 265 266 267 269 270 271 269 269 269 268 268 270 271 272 273 274 276 278 280 282 284 285 285 285 285 285 285 284 285 284 282 280 278 278 277 278 278
266 266 266 267 267 265 264 265 267 267 268 269 270 270 268 269 268 268 269 271 272 273 274 274 276 278 279 281 283 284 283 284 284 284 283 284 284 282 282 280 279 279 279 278
265 265 265 266 266 265 265 266 267 267 267 268 270 269 267 267 268 269 270 272 274 274 274 275 276 277 278 281 282 284 284 283 283 283 283 283 283 282 282 281 281 279 278 279
265 265 265 266 266 267 268 268 267 267 268 268 269 269 267 267 269 270 271 271 273 274 274 276 278 279 280 280 281 281 283 282 281 281 282 282 282 283 283 281 280 279 278 278
266 267 267 268 267 267 268 268 268 267 268 269 269 269 269 268 268 270 271 271 272 274 276 276 278 280 280 280 280 280 281 281 281 280 280 281 281 281 280 280 279 279 278 278
265 267 268 269 270 269 269 269 269 270 269 269 270 269 270 270 270 270 270 271 272 273 276 277 278 279 280 280 281 280 281 281 280 280 279 279 279 279 279 279 278 277 278 277
265 267 268 270 270 270 270 271 271 271 273 272 271 271 270 270 270 270 270 270 272 274 275 276 278 280 281 280 280 280 279 279 279 278 277 278 278 279 279 279 278 278 277 276
266 268 267 269 269 269 271 271 270 271 272 273 271 271 271 270 269 270 271 271 272 274 275 277 278 280 280 280 280 280 280 278 278 277 276 277 279 280 278 278 277 276 275 275
267 268 269 268 269 270 270 271 271 270 270 270 270 269 270 270 270 271 272 272 273 274 275 276 278 279 279 278 279 280 280 278 278 277 276 276 277 279 278 277 276 275 275 276
268 269 270 270 269 269 270 270 271 272 271 270 269 269 270 270 270 270 272 272 272 274 275 275 275 278 278 278 279 280 281 279 278 277 276 276 277 278 278 277 276 274 273 275
270 270 271 271 271 271 271 271 270 270 270 269 269 269 270 271 272 272 272 271 273 275 275 275 274 275 276 277 278 279 280 277 277 277 276 276 276 278 278 277 277 275 274 274
271 270 270 271 272 272 271 271 270 270 270 270 270 270 269 270 271 271 272 272 273 274 275 273 273 274 275 275 277 278 278 276 274 275 275 276 276 277 277 276 276 276 276 275
Height
5872 5874 5874 5874 5874 5875 5875 5875 5875 5875 5874 5874 5874 5873 5872 5871 5871 5870 5869 5869 5868 5867 5866 5865 5864 5863 5862 5861 5860 5858 5857 5856 5855 5853 5852 5851 5850 5849 5848 5847 5846 5845 5844 5843
5871 5871 5871 5871 5872 5872 5872 5873 5873 5873 5872 5872 5872 5871 5870 5870 5869 5868 5868 5867 5866 5865 5865 5864 5863 5862 5861 5860 5858 5857 5856 5855 5853 5852 5850 5849 5848 5847 5846 5845 5844 5843 5842 5841
5868 5869 5868 5869 5869 5870 5870 5870 5870 5870 5870 5869 5870 5870 5869 5868 5867 5867 5866 5865 5864 5864 5863 5862 5861 5860 5859 5858 5857 5856 5854 5853 5852 5850 5849 5848 5847 5845 5844 5843 5842 5841 5840 5839
5864 5865 5866 5866 5866 5866 5867 5867 5867 5867 5867 5867 5868 5867 5867 5866 5865 5865 5864 5863 5862 5862 5861 5860 5859 5858 5857 5856 5855 5854 5853 5851 5850 5849 5847 5846 5845 5844 5843 5842 5841 5839 5838 5837
5862 5862 5863 5863 5863 5863 5864 5864 5864 5864 5864 5865 5865 5865 5865 5863 5863 5862 5862 5861 5860 5860 5859 5858 5857 5856 5855 5854 5853 5852 5851 5849 5848 5847 5845 5844 5843 5842 5841 5840 5839 5837 5836 5835
5859 5859 5859 5860 5860 5861 5861 5861 5861 5861 5861 5862 5862 5862 5862 5861 5860 5859 5859 5858 5857 5857 5856 5855 5855 5854 5853 5852 5850 5849 5848 5847 5846 5844 5843 5842 5840 5840 5839 5837 5836 5835 5834 5832
5856 5856 5856 5857 5857 5858 5858 5859 5859 5859 5859 5859 5859 5858 5859 5858 5857 5856 5856 5855 5854 5854 5853 5852 5852 5851 5850 5849 5848 5847 5845 5844 5843 5842 5840 5839 5838 5837 5836 5835 5834 5832 5831 5830
5852 5853 5853 5853 5854 5854 5855 5856 5857 5857 5856 5856 5855 5855 5855 5854 5853 5853 5852 5852 5851 5851 5850 5849 5849 5848 5847 5846 5845 5844 5842 5841 5840 5839 5837 5836 5835 5834 5833 5832 5830 5829 5828 5827
5848 5849 5849 5850 5850 5851 5851 5851 5852 5852 5852 5852 5852 5852 5851 5850 5850 5849 5849 5848 5848 5847 5846 5846 5845 5844 5843 5842 5841 5840 5839 5838 5836 5835 5834 5832 5831 5830 5829 5828 5827 5825 5824 5823
5843 5844 5845 5846 5846 5847 5848 5847 5848 5848 5848 5848 5848 5848 5847 5846 5846 5845 5845 5844 5844 5843 5843 5842 5841 5840 5839 5838 5837 5836 5835 5834 5832 5831 5830 5829 5827 5826 5825 5824 5823 5822 5820 5819
5839 5840 5841 5841 5842 5842 5843 5843 5843 5843 5843 5844 5843 5845 5843 5842 5841 5841 5841 5840 5839 5839 5838 5838 5837 5836 5835 5834 5833 5832 5831 5830 5828 5827 5826 5824 5823 5822 5821 5820 5818 5817 5816 5815
5834 5835 5835 5836 5836 5837 5837 5838 5838 5839 5838 5838 5838 5841 5838 5837 5836 5836 5836 5835 5835 5834 5834 5833 5832 5831 5830 5829 5828 5827 5826 5825 5824 5822 5821 5820 5818 5817 5816 5815 5813 5812 5812 5811
5828 5830 5830 5831 5833 5832 5832 5832 5832 5832 5832 5832 5833 5835 5832 5832 5831 5831 5831 5830 5830 5829 5829 5828 5827 5826 5825 5824 5823 5822 5821 5820 5818 5817 5815 5814 5813 5812 5811 5809 5808 5807 5806 5806
5823 5824 5825 5826 5825 5825 5825 5826 5826 5826 5826 5826 5827 5827 5826 5826 5825 5825 5825 5824 5824 5824 5823 5822 5822 5821 5819 5818 5817 5816 5815 5814 5812 5811 5809 5808 5807 5806 5804 5803 5803 5802 5801 5800
5817 5817 5817 5818 5818 5818 5819 5819 5819 5819 5820 5820 5821 5820 5820 5819 5819 5819 5818 5818 5818 5818 5817 5816 5815 5814 5813 5812 5811 5810 5809 5807 5806 5805 5803 5802 5800 5799 5798 5797 5796 5796 5795 5794
5810 5810 5811 5811 5811 5811 5812 5812 5812 5813 5813 5813 5813 5813 5813 5812 5812 5812 5812 5811 5811 5811 5810 5809 5809 5808 5807 5806 5804 5803 5802 5801 5799 5798 5797 5795 5794 5793 5792 5791 5790 5789 5789 5788
5803 5803 5804 5804 5804 5804 5805 5806 5805 5806 5806 5806 5806 5807 5806 5805 5805 5805 5805 5805 5804 5804 5803 5803 5802 5801 5800 5799 5798 5796 5795 5794 5792 5791 5790 5789 5788 5787 5786 5785 5784 5783 5782 5782
5795 5796 5796 5796 5797 5797 5800 5798 5798 5798 5798 5798 5798 5798 5798 5798 5798 5798 5798 5797 5797 5796 5796 5795 5795 5794 5793 5791 5790 5789 5788 5786 5785 5784 5783 5782 5781 5780 5779 5778 5777 5776 5776 5775
5788 5788 5788 5789 5789 5789 5791 5791 5791 5791 5790 5790 5790 5791 5791 5791 5791 5791 5790 5789 5789 5789 5788 5787 5787 5786 5785 5784 5783 5781 5780 5779 5778 5777 5775 5774 5774 5773 5772 5771 5770 5769 5769 5768
5780 5780 5781 5781 5781 5782 5783 5783 5783 5784 5783 5783 5782 5783 5783 5783 5783 5783 5782 5781 5781 5780 5780 5779 5778 5777 5776 5776 5775 5774 5772 5771 5770 5769 5768 5767 5766 5765 5764 5764 5763 5762 5761 5760
5772 5772 5773 5773 5772 5773 5774 5774 5775 5776 5776 5775 5774 5774 5774 5774 5774 5775 5774 5773 5773 5772 5772 5771 5770 5769 5768 5767 5767 5766 5765 5763 5762 5761 5760 5759 5758 5758 5757 5756 5755 5754 5753 5753
5765 5765 5765 5765 5765 5767 5765 5765 5767 5767 5766 5766 5766 5766 5765 5765 5765 5765 5765 5765 5765 5764 5764 5763 5762 5761 5760 5759 5758 5757 5756 5755 5754 5753 5752 5751 5750 5750 5749 5748 5747 5746 5746 5745
5756 5757 5757 5757 5758 5757 5756 5756 5756 5757 5757 5757 5757 5757 5757 5757 5757 5757 5757 5756 5756 5756 5755 5754 5754 5753 5752 5750 5750 5749 5748 5747 5746 5745 5744 5743 5743 5742 5742 5740 5740 5739 5738 5736
5748 5748 5748 5748 5748 5747 5747 5746 5747 5747 5747 5747 5748 5748 5748 5748 5748 5748 5748 5747 5747 5747 5746 5745 5745 5744 5743 5742 5740 5740 5739 5738 5737 5737 5736 5735 5735 5734 5733 5732 5731 5730 5729 5728
5739 5739 5738 5738 5738 5738 5738 5738 5737 5737 5738 5738 5738 5738 5738 5738 5739 5738 5738 5738 5738 5737 5737 5736 5735 5735 5734 5733 5732 5731 5730 5729 5729 5728 5728 5727 5727 5726 5725 5724 5723 5722 5721 5720
5731 5730 5729 5729 5729 5729 5729 5728 5728 5728 5728 5728 5728 5728 5728 5729 5729 5729 5728 5728 5728 5728 5727 5727 5726 5725 5724 5723 5723 5722 5721 5720 5720 5720 5719 5719 5718 5717 5716 5716 5715 5714 5713 5712